| time (UTC) | temp C | wind direction | speed KPH | gust KPH | rain 1hr cm | rain 24hr cm | rain mn cm | humidity % | barometer mb |
| 20260510231804 | 14 | 0 | 0.0 | 0.0 | 0.00 | 0.25 | 0.25 | 88 | 1010.0 |
| 20260510230904 | 14 | 0 | 0.0 | 0.0 | 0.00 | 0.25 | 0.25 | 88 | 1010.0 |
| 20260510230004 | 14 | 0 | 0.0 | 0.0 | 0.00 | 0.25 | 0.25 | 87 | 1009.7 |
| 20260510225404 | 15 | 0 | 0.0 | 0.0 | 0.00 | 0.25 | 0.25 | 87 | 1010.0 |
| 20260510224504 | 15 | 0 | 0.0 | 0.0 | 0.00 | 0.28 | 0.25 | 87 | 1009.4 |
| 20260510223604 | 15 | 0 | 0.0 | 0.0 | 0.00 | 0.30 | 0.25 | 87 | 1009.7 |
| 20260510222704 | 15 | 0 | 0.0 | 0.0 | 0.00 | 0.36 | 0.25 | 86 | 1009.7 |
| 20260510221804 | 15 | 0 | 0.0 | 0.0 | 0.00 | 0.43 | 0.25 | 86 | 1009.7 |
| 20260510220904 | 15 | 0 | 0.0 | 0.0 | 0.00 | 0.48 | 0.25 | 86 | 1009.7 |
| 20260510220004 | 15 | 0 | 0.0 | 0.0 | 0.00 | 0.56 | 0.25 | 85 | 1009.4 |
| 20260510215404 | 15 | 0 | 0.0 | 0.0 | 0.00 | 0.61 | 0.25 | 85 | 1009.7 |
| 20260510214504 | 15 | 0 | 0.0 | 0.0 | 0.03 | 0.66 | 0.25 | 85 | 1009.4 |
| 20260510213604 | 15 | 0 | 0.0 | 0.0 | 0.25 | 0.74 | 0.25 | 84 | 1009.4 |
| 20260510212704 | 15 | 0 | 0.0 | 0.0 | 0.25 | 0.89 | 0.25 | 84 | 1009.0 |
| 20260510211804 | 15 | 19 | 0.0 | 1.6 | 0.25 | 0.94 | 0.25 | 83 | 1009.4 |
| 20260510210904 | 15 | 19 | 0.0 | 1.6 | 0.25 | 0.97 | 0.25 | 82 | 1009.0 |
| 20260510210004 | 15 | 19 | 0.0 | 3.2 | 0.25 | 0.99 | 0.25 | 81 | 1009.4 |
| 20260510205404 | 15 | 19 | 1.6 | 3.2 | 0.25 | 0.99 | 0.25 | 79 | 1009.4 |
| 20260510204504 | 16 | 21 | 1.6 | 3.2 | 0.23 | 0.97 | 0.23 | 78 | 1009.0 |
| 20260510203604 | 17 | 21 | 0.0 | 3.2 | 0.00 | 0.76 | 0.00 | 79 | 1009.0 |
| 20260510202704 | 18 | 21 | 1.6 | 3.2 | 0.00 | 0.79 | 0.00 | 79 | 1008.3 |
| 20260510201804 | 18 | 22 | 1.6 | 6.4 | 0.00 | 0.81 | 0.00 | 80 | 1008.7 |
| 20260510200904 | 19 | 23 | 1.6 | 4.8 | 0.00 | 0.84 | 0.00 | 81 | 1008.7 |
| 20260510200004 | 19 | 268 | 1.6 | 6.4 | 0.00 | 0.86 | 0.00 | 80 | 1009.4 |
| 20260510195404 | 20 | 232 | 1.6 | 3.2 | 0.00 | 0.91 | 0.00 | 80 | 1008.3 |
| 20260510194504 | 20 | 216 | 0.0 | 3.2 | 0.00 | 1.02 | 0.00 | 81 | 1008.3 |
| 20260510193604 | 20 | 218 | 1.6 | 9.7 | 0.00 | 1.12 | 0.00 | 82 | 1008.7 |
| 20260510192704 | 20 | 238 | 0.0 | 3.2 | 0.00 | 1.19 | 0.00 | 82 | 1008.7 |
| 20260510191804 | 20 | 230 | 0.0 | 3.2 | 0.00 | 1.22 | 0.00 | 82 | 1008.7 |
| 20260510190904 | 20 | 198 | 0.0 | 3.2 | 0.00 | 1.24 | 0.00 | 82 | 1008.7 |
| 20260510190004 | 20 | 198 | 0.0 | 1.6 | 0.00 | 1.32 | 0.00 | 83 | 1008.7 |
| 20260510185404 | 20 | 192 | 0.0 | 3.2 | 0.00 | 1.40 | 0.00 | 83 | 1008.7 |
| 20260510184504 | 21 | 190 | 1.6 | 4.8 | 0.00 | 1.52 | 0.00 | 84 | 1008.7 |
| 20260510183604 | 21 | 234 | 1.6 | 4.8 | 0.00 | 1.68 | 0.00 | 85 | 1008.7 |
| 20260510182704 | 20 | 311 | 0.0 | 3.2 | 0.00 | 1.68 | 0.00 | 85 | 1008.7 |
| 20260510181804 | 20 | 258 | 0.0 | 3.2 | 0.00 | 1.68 | 0.00 | 85 | 1009.0 |
| 20260510180904 | 21 | 197 | 1.6 | 4.8 | 0.00 | 1.68 | 0.00 | 86 | 1008.7 |
| 20260510180004 | 20 | 197 | 1.6 | 4.8 | 0.00 | 1.68 | 0.00 | 87 | 1008.7 |
| 20260510175404 | 20 | 174 | 3.2 | 6.4 | 0.00 | 1.68 | 0.00 | 86 | 1008.7 |
| 20260510174504 | 21 | 179 | 3.2 | 6.4 | 0.00 | 1.68 | 0.00 | 88 | 1009.0 |
| 20260510173604 | 20 | 181 | 3.2 | 6.4 | 0.00 | 1.68 | 0.00 | 88 | 1009.0 |
| 20260510172704 | 20 | 165 | 3.2 | 6.4 | 0.00 | 1.68 | 0.00 | 89 | 1008.7 |
| 20260510171804 | 20 | 172 | 3.2 | 4.8 | 0.00 | 1.68 | 0.00 | 89 | 1008.3 |
| 20260510170904 | 21 | 161 | 3.2 | 6.4 | 0.00 | 1.68 | 0.00 | 90 | 1008.7 |
| 20260510170004 | 20 | 149 | 3.2 | 9.7 | 0.00 | 1.68 | 0.00 | 91 | 1008.7 |
| 20260510165404 | 20 | 165 | 3.2 | 9.7 | 0.00 | 1.68 | 0.00 | 92 | 1008.7 |
| 20260510164506 | 20 | 197 | 3.2 | 6.4 | 0.00 | 1.68 | 0.00 | 92 | 1009.0 |
| 20260510163604 | 20 | 162 | 1.6 | 4.8 | 0.00 | 1.68 | 0.00 | 93 | 1009.4 |
| 20260510162704 | 20 | 132 | 3.2 | 6.4 | 0.00 | 1.68 | 0.00 | 93 | 1009.4 |
| 20260510161804 | 19 | 131 | 3.2 | 9.7 | 0.00 | 1.68 | 0.00 | 94 | 1009.4 |
| 20260510160904 | 19 | 147 | 3.2 | 6.4 | 0.00 | 1.68 | 0.00 | 94 | 1009.4 |
| 20260510160004 | 18 | 131 | 3.2 | 6.4 | 0.00 | 1.68 | 0.00 | 95 | 1009.4 |
| 20260510155404 | 17 | 186 | 1.6 | 6.4 | 0.00 | 1.68 | 0.00 | 94 | 1009.4 |
| 20260510154504 | 17 | 156 | 3.2 | 6.4 | 0.00 | 1.68 | 0.00 | 95 | 1009.4 |
| 20260510153604 | 17 | 140 | 3.2 | 6.4 | 0.00 | 1.68 | 0.00 | 95 | 1009.4 |
| 20260510152704 | 17 | 130 | 3.2 | 6.4 | 0.00 | 1.68 | 0.00 | 95 | 1009.4 |
| 20260510151804 | 17 | 132 | 3.2 | 9.7 | 0.00 | 1.68 | 0.00 | 95 | 1009.4 |
| 20260510150904 | 17 | 140 | 3.2 | 9.7 | 0.00 | 1.68 | 0.00 | 95 | 1009.7 |
| 20260510150004 | 17 | 179 | 3.2 | 6.4 | 0.00 | 1.68 | 0.00 | 96 | 1009.7 |
| 20260510145404 | 16 | 161 | 3.2 | 4.8 | 0.00 | 1.68 | 0.00 | 96 | 1009.4 |
| 20260510144504 | 16 | 156 | 3.2 | 4.8 | 0.00 | 1.68 | 0.00 | 96 | 1009.4 |
| 20260510143604 | 16 | 178 | 1.6 | 4.8 | 0.00 | 1.68 | 0.00 | 96 | 1009.4 |
| 20260510142704 | 15 | 176 | 3.2 | 4.8 | 0.00 | 1.68 | 0.00 | 96 | 1009.4 |
| 20260510141804 | 14 | 186 | 1.6 | 4.8 | 0.00 | 1.68 | 0.00 | 96 | 1009.4 |
| 20260510140904 | 14 | 185 | 0.0 | 4.8 | 0.00 | 1.68 | 0.00 | 96 | 1009.4 |
| 20260510140004 | 13 | 185 | 1.6 | 3.2 | 0.00 | 1.68 | 0.00 | 97 | 1009.4 |
| 20260510135404 | 12 | 185 | 0.0 | 3.2 | 0.00 | 1.68 | 0.00 | 96 | 1009.7 |
| 20260510134504 | 12 | 185 | 0.0 | 1.6 | 0.00 | 1.68 | 0.00 | 96 | 1009.4 |
| 20260510133604 | 11 | 0 | 0.0 | 0.0 | 0.00 | 1.68 | 0.00 | 96 | 1009.4 |
| 20260510132704 | 11 | 185 | 0.0 | 1.6 | 0.00 | 1.68 | 0.00 | 96 | 1009.4 |
| 20260510131804 | 11 | 185 | 0.0 | 1.6 | 0.00 | 1.68 | 0.00 | 96 | 1009.4 |
| 20260510130904 | 11 | 185 | 0.0 | 1.6 | 0.00 | 1.68 | 0.00 | 96 | 1009.4 |
| 20260510130004 | 11 | 0 | 0.0 | 0.0 | 0.00 | 1.68 | 0.00 | 96 | 1009.4 |
| 20260510125404 | 11 | 0 | 0.0 | 0.0 | 0.00 | 1.68 | 0.00 | 96 | 1009.4 |
| 20260510124504 | 11 | 0 | 0.0 | 0.0 | 0.00 | 1.68 | 0.00 | 96 | 1009.4 |
| 20260510123604 | 11 | 0 | 0.0 | 0.0 | 0.00 | 1.68 | 0.00 | 96 | 1009.4 |
| 20260510122704 | 11 | 0 | 0.0 | 0.0 | 0.00 | 1.68 | 0.00 | 96 | 1009.0 |
| 20260510121804 | 11 | 0 | 0.0 | 0.0 | 0.00 | 1.68 | 0.00 | 96 | 1009.0 |
| 20260510120904 | 11 | 0 | 0.0 | 0.0 | 0.00 | 1.68 | 0.00 | 96 | 1009.0 |
| 20260510120004 | 10 | 0 | 0.0 | 0.0 | 0.00 | 1.68 | 0.00 | 96 | 1008.7 |
| 20260510115404 | 10 | 0 | 0.0 | 0.0 | 0.00 | 1.68 | 0.00 | 96 | 1008.7 |
| 20260510114504 | 10 | 0 | 0.0 | 0.0 | 0.00 | 1.68 | 0.00 | 96 | 1008.7 |
| 20260510113604 | 10 | 0 | 0.0 | 0.0 | 0.00 | 1.68 | 0.00 | 96 | 1008.7 |
| 20260510112704 | 10 | 185 | 0.0 | 1.6 | 0.00 | 1.68 | 0.00 | 96 | 1008.3 |
| 20260510111804 | 10 | 0 | 0.0 | 0.0 | 0.00 | 1.68 | 0.00 | 96 | 1008.3 |
| 20260510110904 | 10 | 0 | 0.0 | 0.0 | 0.00 | 1.68 | 0.00 | 96 | 1008.3 |
| 20260510110004 | 10 | 0 | 0.0 | 0.0 | 0.00 | 1.68 | 0.00 | 96 | 1008.7 |
| 20260510105404 | 10 | 0 | 0.0 | 0.0 | 0.00 | 1.68 | 0.00 | 95 | 1008.3 |
| 20260510104504 | 10 | 0 | 0.0 | 0.0 | 0.00 | 1.68 | 0.00 | 95 | 1008.3 |
| 20260510103604 | 10 | 0 | 0.0 | 0.0 | 0.00 | 1.68 | 0.00 | 95 | 1008.3 |
| 20260510102704 | 10 | 0 | 0.0 | 0.0 | 0.00 | 1.68 | 0.00 | 95 | 1008.3 |
| 20260510101804 | 10 | 0 | 0.0 | 0.0 | 0.00 | 1.68 | 0.00 | 95 | 1008.3 |
| 20260510100904 | 10 | 0 | 0.0 | 0.0 | 0.00 | 1.68 | 0.00 | 95 | 1008.0 |
| 20260510100004 | 10 | 185 | 0.0 | 1.6 | 0.00 | 1.68 | 0.00 | 95 | 1008.0 |
| 20260510095404 | 10 | 185 | 0.0 | 3.2 | 0.00 | 1.68 | 0.00 | 95 | 1008.0 |
| 20260510094504 | 10 | 185 | 0.0 | 1.6 | 0.00 | 1.68 | 0.00 | 95 | 1008.0 |
| 20260510093604 | 10 | 0 | 0.0 | 0.0 | 0.00 | 1.68 | 0.00 | 95 | 1008.3 |
| 20260510092704 | 10 | 0 | 0.0 | 0.0 | 0.00 | 1.68 | 0.00 | 95 | 1008.3 |
| 20260510091804 | 10 | 185 | 0.0 | 1.6 | 0.00 | 1.68 | 0.00 | 95 | 1008.0 |
| 20260510090904 | 10 | 185 | 0.0 | 1.6 | 0.00 | 1.68 | 0.00 | 95 | 1008.0 |
| 20260510090004 | 10 | 0 | 0.0 | 0.0 | 0.00 | 1.68 | 0.00 | 95 | 1008.3 |
| 20260510085404 | 10 | 0 | 0.0 | 0.0 | 0.00 | 1.68 | 0.00 | 95 | 1008.0 |
| 20260510084504 | 10 | 0 | 0.0 | 0.0 | 0.00 | 1.68 | 0.00 | 95 | 1008.3 |
| 20260510083604 | 10 | 0 | 0.0 | 0.0 | 0.00 | 1.70 | 0.00 | 95 | 1008.3 |
| 20260510082704 | 10 | 0 | 0.0 | 0.0 | 0.00 | 1.70 | 0.00 | 95 | 1008.3 |
| 20260510081804 | 10 | 0 | 0.0 | 0.0 | 0.00 | 1.70 | 0.00 | 95 | 1008.3 |
| 20260510080904 | 10 | 0 | 0.0 | 0.0 | 0.00 | 1.73 | 0.00 | 95 | 1008.3 |
| 20260510080004 | 10 | 0 | 0.0 | 0.0 | 0.00 | 1.75 | 0.00 | 95 | 1008.0 |
| 20260510075404 | 10 | 0 | 0.0 | 0.0 | 0.00 | 1.75 | 0.00 | 95 | 1008.3 |
| 20260510074504 | 10 | 0 | 0.0 | 0.0 | 0.00 | 1.75 | 0.00 | 95 | 1008.0 |
| 20260510073604 | 10 | 0 | 0.0 | 0.0 | 0.00 | 1.75 | 0.00 | 95 | 1008.0 |
| 20260510072704 | 10 | 0 | 0.0 | 0.0 | 0.00 | 1.75 | 0.00 | 95 | 1008.0 |
| 20260510071804 | 10 | 185 | 0.0 | 1.6 | 0.00 | 1.75 | 0.00 | 95 | 1007.6 |
| 20260510070904 | 10 | 0 | 0.0 | 0.0 | 0.00 | 1.75 | 0.00 | 94 | 1007.6 |
| 20260510070004 | 10 | 0 | 0.0 | 0.0 | 0.00 | 1.75 | 0.00 | 94 | 1008.0 |
| 20260510065404 | 10 | 0 | 0.0 | 0.0 | 0.00 | 1.75 | 0.00 | 94 | 1007.6 |
| 20260510064504 | 10 | 0 | 0.0 | 0.0 | 0.00 | 1.75 | 0.00 | 94 | 1008.0 |
| 20260510063604 | 10 | 0 | 0.0 | 0.0 | 0.00 | 1.75 | 0.00 | 94 | 1008.3 |
| 20260510062704 | 10 | 184 | 0.0 | 1.6 | 0.00 | 1.75 | 0.00 | 94 | 1008.0 |
| 20260510061804 | 10 | 0 | 0.0 | 0.0 | 0.00 | 1.75 | 0.00 | 94 | 1007.6 |
| 20260510060904 | 10 | 0 | 0.0 | 0.0 | 0.00 | 1.75 | 0.00 | 94 | 1007.6 |
| 20260510060004 | 10 | 0 | 0.0 | 0.0 | 0.00 | 1.75 | 0.00 | 94 | 1007.6 |
| 20260510055404 | 10 | 0 | 0.0 | 0.0 | 0.00 | 1.75 | 0.00 | 94 | 1007.6 |
| 20260510054504 | 10 | 0 | 0.0 | 0.0 | 0.00 | 1.75 | 0.00 | 94 | 1007.6 |
| 20260510053604 | 10 | 0 | 0.0 | 0.0 | 0.00 | 1.75 | 0.00 | 94 | 1007.6 |
| 20260510052704 | 10 | 0 | 0.0 | 0.0 | 0.00 | 1.75 | 0.00 | 94 | 1007.6 |
| 20260510051804 | 10 | 0 | 0.0 | 0.0 | 0.00 | 1.75 | 0.00 | 94 | 1008.0 |
| 20260510050904 | 10 | 0 | 0.0 | 0.0 | 0.00 | 1.75 | 0.00 | 94 | 1008.0 |
| 20260510050004 | 10 | 0 | 0.0 | 0.0 | 0.00 | 1.75 | 0.00 | 94 | 1008.0 |
| 20260510045404 | 10 | 0 | 0.0 | 0.0 | 0.00 | 1.75 | 0.00 | 94 | 1007.6 |
| 20260510044504 | 10 | 0 | 0.0 | 0.0 | 0.00 | 1.75 | 0.00 | 94 | 1007.6 |
| 20260510043603 | 10 | 0 | 0.0 | 0.0 | 0.00 | 1.75 | 0.00 | 94 | 1007.6 |
| 20260510042704 | 10 | 0 | 0.0 | 0.0 | 0.00 | 1.75 | 0.00 | 94 | 1007.6 |
| 20260510041804 | 10 | 0 | 0.0 | 0.0 | 0.00 | 1.75 | 0.00 | 94 | 1007.6 |
| 20260510040904 | 10 | 0 | 0.0 | 0.0 | 0.00 | 1.75 | 0.00 | 94 | 1007.6 |
| 20260510040004 | 10 | 0 | 0.0 | 0.0 | 0.00 | 1.75 | 0.00 | 94 | 1007.6 |
| 20260510035404 | 10 | 0 | 0.0 | 0.0 | 0.00 | 1.75 | 1.75 | 93 | 1007.6 |
| 20260510034504 | 10 | 0 | 0.0 | 0.0 | 0.00 | 1.75 | 1.75 | 93 | 1007.3 |
| 20260510033604 | 10 | 0 | 0.0 | 0.0 | 0.00 | 1.75 | 1.75 | 93 | 1007.6 |
| 20260510032704 | 11 | 0 | 0.0 | 0.0 | 0.00 | 1.75 | 1.75 | 93 | 1007.6 |
| 20260510031804 | 11 | 0 | 0.0 | 0.0 | 0.00 | 1.75 | 1.75 | 93 | 1007.6 |
| 20260510030904 | 11 | 0 | 0.0 | 0.0 | 0.00 | 1.75 | 1.75 | 93 | 1007.6 |
| 20260510030004 | 10 | 0 | 0.0 | 0.0 | 0.00 | 1.75 | 1.75 | 93 | 1008.0 |
| 20260510025404 | 10 | 0 | 0.0 | 0.0 | 0.00 | 1.75 | 1.75 | 93 | 1007.6 |
| 20260510024504 | 10 | 182 | 0.0 | 1.6 | 0.00 | 1.75 | 1.75 | 93 | 1007.6 |
| 20260510023603 | 11 | 182 | 0.0 | 1.6 | 0.00 | 1.75 | 1.75 | 93 | 1007.6 |
| 20260510022704 | 11 | 0 | 0.0 | 0.0 | 0.00 | 1.75 | 1.75 | 93 | 1007.6 |
| 20260510021804 | 11 | 0 | 0.0 | 0.0 | 0.00 | 1.75 | 1.75 | 93 | 1007.6 |
| 20260510020904 | 11 | 0 | 0.0 | 0.0 | 0.00 | 1.75 | 1.75 | 93 | 1007.6 |
| 20260510020004 | 11 | 0 | 0.0 | 0.0 | 0.00 | 1.75 | 1.75 | 93 | 1007.6 |
| 20260510015403 | 11 | 0 | 0.0 | 0.0 | 0.00 | 1.75 | 1.75 | 92 | 1007.6 |
| 20260510014504 | 11 | 0 | 0.0 | 0.0 | 0.00 | 1.75 | 1.75 | 92 | 1007.6 |
| 20260510013604 | 11 | 0 | 0.0 | 0.0 | 0.00 | 1.75 | 1.75 | 92 | 1007.6 |
| 20260510012704 | 11 | 0 | 0.0 | 0.0 | 0.00 | 1.75 | 1.75 | 92 | 1008.0 |
| 20260510011803 | 11 | 0 | 0.0 | 0.0 | 0.00 | 1.75 | 1.75 | 92 | 1007.6 |
| 20260510010904 | 11 | 0 | 0.0 | 0.0 | 0.00 | 1.75 | 1.75 | 92 | 1007.6 |
| 20260510010004 | 11 | 0 | 0.0 | 0.0 | 0.00 | 1.75 | 1.75 | 92 | 1007.3 |
| 20260510005404 | 11 | 0 | 0.0 | 0.0 | 0.00 | 1.75 | 1.75 | 92 | 1007.0 |
| 20260510004503 | 11 | 0 | 0.0 | 0.0 | 0.00 | 1.75 | 1.75 | 92 | 1007.0 |
| 20260510003603 | 11 | 0 | 0.0 | 0.0 | 0.00 | 1.75 | 1.75 | 92 | 1007.3 |
| 20260510002703 | 11 | 0 | 0.0 | 0.0 | 0.00 | 1.75 | 1.75 | 92 | 1006.6 |
| 20260510001804 | 11 | 0 | 0.0 | 0.0 | 0.00 | 1.75 | 1.75 | 92 | 1007.0 |
| 20260510000903 | 11 | 0 | 0.0 | 0.0 | 0.00 | 1.75 | 1.75 | 92 | 1007.0 |
| 20260510000004 | 11 | 0 | 0.0 | 0.0 | 0.00 | 1.75 | 1.75 | 92 | 1007.0 |
| 20260509235404 | 11 | 0 | 0.0 | 0.0 | 0.00 | 1.75 | 1.75 | 92 | 1006.6 |
| 20260509234503 | 11 | 0 | 0.0 | 0.0 | 0.03 | 1.75 | 1.75 | 91 | 1007.0 |
| 20260509233603 | 11 | 0 | 0.0 | 0.0 | 0.05 | 1.75 | 1.75 | 91 | 1007.0 |
| 20260509232703 | 11 | 0 | 0.0 | 0.0 | 0.10 | 1.75 | 1.75 | 91 | 1007.0 |